Sheldon, IA

8:31 AM CDT on July 26, 2016 (GMT -0500)
Sheldon Municipal

Weather History for KSHL - June, 2014

Change the Weather History Date:

Thursday, June 19, 2014

  Actual Average Record
Temperature  
Mean Temperature 74 °F -  
Max Temperature 80 °F 80 °F 100 °F (1988)
Min Temperature 68 °F 56 °F 41 °F (2004)
Cooling Degree Days 9    
Growing Degree Days 24 (Base 50)    
Moisture  
Dew Point 67 °F    
Average Humidity 77    
Maximum Humidity 94    
Minimum Humidity 57    
Precipitation  
Precipitation 0.00 in - - ()
Sea Level Pressure  
Sea Level Pressure 29.86 in    
Wind  
Wind Speed 10 mph (WSW)    
Max Wind Speed 17 mph    
Max Gust Speed 24 mph    
Visibility 10 miles    
Events      
Averages and records for this station are not official NWS values.
T = Trace of Precipitation, MM = Missing Value Source: NWS Daily Summary

Daily Weather History Graph

Daily Weather History Graph

Search for Another Location

Airport or City:

Trip Planner

Search our weather history database for the weather conditions in past years. The results will help you decide how hot, cold, wet, or windy it might be!

Date:

Astronomy

Jun. 19, 2014 Rise Set
Actual Time 5:43 AM CDT 9:06 PM CDT
Civil Twilight 5:07 AM CDT 9:41 PM CDT
Nautical Twilight 4:21 AM CDT 10:28 PM CDT
Astronomical Twilight 3:23 AM CDT 11:26 PM CDT
Moon 12:59 AM CDT (6/19) 1:26 PM CDT (6/19)
Length of Visible Light 16h 34m
Length of Day
15h 23m
Waning Gibbous, 51% of the Moon is Illuminated
Jun 19
Waning Gibbous
Jun 19
Last Quarter
Jun 27
New
Jul 5
First Quarter
Jul 12
Full

Hourly Weather History & Observations

Time (CDT) Temp. Heat Index Dew Point Humidity Pressure Visibility Wind Dir Wind Speed Gust Speed Precip Events Conditions
12:15 AM 78.8 °F - 73.4 °F 83% 29.79 in 10.0 mi SE 12.7 mph - N/A   Clear
12:35 AM 77.0 °F - 73.4 °F 89% 29.78 in 10.0 mi SE 11.5 mph - N/A   Clear
12:55 AM 77.0 °F - 73.4 °F 89% 29.78 in 10.0 mi SE 11.5 mph - N/A   Clear
1:15 AM 77.0 °F - 73.4 °F 89% 29.77 in 10.0 mi SSE 10.4 mph - N/A   Clear
1:35 AM 77.0 °F - 73.4 °F 89% 29.77 in 10.0 mi SSE 9.2 mph - N/A   Partly Cloudy
1:55 AM 77.0 °F - 73.4 °F 89% 29.75 in 10.0 mi South 11.5 mph - N/A   Clear
2:15 AM 77.0 °F - 73.4 °F 89% 29.76 in 10.0 mi South 11.5 mph - N/A   Clear
2:35 AM 77.0 °F - 73.4 °F 89% 29.76 in 10.0 mi SSW 6.9 mph 15.0 mph N/A   Mostly Cloudy
2:55 AM 77.0 °F - 73.4 °F 89% 29.77 in 10.0 mi SW 11.5 mph - N/A   Mostly Cloudy
3:15 AM 75.2 °F - 69.8 °F 83% 29.76 in 10.0 mi West 16.1 mph - N/A   Mostly Cloudy
3:35 AM 71.6 °F - 68.0 °F 88% 29.73 in 10.0 mi NE 5.8 mph - N/A   Partly Cloudy
3:55 AM 71.6 °F - 69.8 °F 94% 29.73 in 10.0 mi Variable 5.8 mph - N/A   Clear
4:15 AM 73.4 °F - 69.8 °F 88% 29.74 in 10.0 mi SE 6.9 mph - N/A   Clear
4:35 AM 71.6 °F - 69.8 °F 94% 29.75 in 10.0 mi SSE 4.6 mph - N/A   Partly Cloudy
4:55 AM 69.8 °F - 68.0 °F 94% 29.75 in 10.0 mi WNW 3.5 mph - N/A   Scattered Clouds
5:15 AM 69.8 °F - 68.0 °F 94% 29.78 in 10.0 mi WSW 6.9 mph - N/A   Mostly Cloudy
5:55 AM 69.8 °F - 66.2 °F 88% 29.83 in 10.0 mi West 11.5 mph - N/A   Mostly Cloudy
6:15 AM 69.8 °F - 68.0 °F 94% 29.85 in 10.0 mi West 13.8 mph 20.7 mph N/A   Mostly Cloudy
6:35 AM 69.8 °F - 68.0 °F 94% 29.86 in 10.0 mi WNW 11.5 mph 18.4 mph N/A   Mostly Cloudy
6:55 AM 69.8 °F - 68.0 °F 94% 29.86 in 10.0 mi West 16.1 mph - N/A   Overcast
7:15 AM 69.8 °F - 66.2 °F 88% 29.86 in 10.0 mi West 17.3 mph 23.0 mph N/A   Mostly Cloudy
7:35 AM 68.0 °F - 62.6 °F 83% 29.88 in 10.0 mi WNW 15.0 mph 24.2 mph N/A   Mostly Cloudy
7:55 AM 69.8 °F - 62.6 °F 78% 29.88 in 10.0 mi WNW 9.2 mph 19.6 mph N/A   Partly Cloudy
8:15 AM 69.8 °F - 62.6 °F 78% 29.84 in 10.0 mi NNW 8.1 mph - N/A   Clear
8:55 AM 69.8 °F - 64.4 °F 83% 29.79 in 10.0 mi East 11.5 mph - N/A   Clear
9:15 AM 69.8 °F - 66.2 °F 88% 29.78 in 10.0 mi ENE 12.7 mph - N/A   Clear
9:35 AM 71.6 °F - 66.2 °F 83% 29.81 in 10.0 mi ESE 8.1 mph - N/A   Clear
9:55 AM 73.4 °F - 66.2 °F 78% 29.82 in 10.0 mi SE 8.1 mph - N/A   Clear
10:15 AM 75.2 °F - 68.0 °F 78% 29.83 in 10.0 mi SE 8.1 mph - N/A   Clear
10:35 AM 75.2 °F - 69.8 °F 83% 29.84 in 10.0 mi SSE 6.9 mph - N/A   Clear
10:55 AM 75.2 °F - 68.0 °F 78% 29.86 in 10.0 mi SW 4.6 mph - N/A   Mostly Cloudy
11:15 AM 75.2 °F - 68.0 °F 78% 29.87 in 10.0 mi West 6.9 mph 13.8 mph N/A   Overcast
11:35 AM 75.2 °F - 68.0 °F 78% 29.88 in 10.0 mi WSW 5.8 mph - N/A   Mostly Cloudy
11:55 AM 77.0 °F - 68.0 °F 74% 29.88 in 10.0 mi WSW 8.1 mph - N/A   Scattered Clouds
12:15 PM 77.0 °F - 68.0 °F 74% 29.89 in 10.0 mi SW 8.1 mph - N/A   Clear
12:35 PM 78.8 °F - 68.0 °F 69% 29.89 in 10.0 mi WSW 9.2 mph - N/A   Clear
12:55 PM 78.8 °F - 69.8 °F 74% 29.87 in 10.0 mi SW 10.4 mph - N/A   Clear
1:15 PM 78.8 °F - 69.8 °F 74% 29.87 in 10.0 mi West 13.8 mph - N/A   Partly Cloudy
1:35 PM 78.8 °F - 68.0 °F 69% 29.86 in 10.0 mi West 10.4 mph - N/A   Mostly Cloudy
1:55 PM 78.8 °F - 66.2 °F 65% 29.87 in 10.0 mi West 10.4 mph - N/A   Overcast
2:15 PM 80.6 °F 82.7 °F 66.2 °F 61% 29.87 in 10.0 mi West 11.5 mph - N/A   Overcast
2:35 PM 80.6 °F 82.7 °F 66.2 °F 61% 29.87 in 10.0 mi West 11.5 mph - N/A   Mostly Cloudy
2:55 PM 80.6 °F 82.3 °F 64.4 °F 58% 29.87 in 10.0 mi West 9.2 mph - N/A   Mostly Cloudy
3:15 PM 78.8 °F - 66.2 °F 65% 29.87 in 10.0 mi West 13.8 mph - N/A   Mostly Cloudy
3:35 PM 78.8 °F - 64.4 °F 61% 29.88 in 10.0 mi West 12.7 mph 19.6 mph N/A   Partly Cloudy
3:55 PM 78.8 °F - 66.2 °F 65% 29.89 in 10.0 mi West 15.0 mph - N/A   Partly Cloudy
4:15 PM 78.8 °F - 64.4 °F 61% 29.89 in 10.0 mi WNW 8.1 mph 15.0 mph N/A   Partly Cloudy
4:35 PM 80.6 °F 82.3 °F 64.4 °F 58% 29.89 in 10.0 mi NW 11.5 mph - N/A   Partly Cloudy
4:55 PM 80.6 °F 82.3 °F 64.4 °F 58% 29.89 in 10.0 mi NW 12.7 mph - N/A   Scattered Clouds
5:15 PM 80.6 °F 82.3 °F 64.4 °F 58% 29.89 in 10.0 mi NW 11.5 mph - N/A   Scattered Clouds
5:35 PM 78.8 °F - 62.6 °F 57% 29.89 in 10.0 mi WNW 10.4 mph - N/A   Partly Cloudy
5:55 PM 78.8 °F - 62.6 °F 57% 29.89 in 10.0 mi WNW 6.9 mph - N/A   Clear
6:15 PM 78.8 °F - 64.4 °F 61% 29.90 in 10.0 mi West 8.1 mph - N/A   Clear
6:35 PM 78.8 °F - 64.4 °F 61% 29.91 in 10.0 mi WNW 8.1 mph - N/A   Clear
6:55 PM 78.8 °F - 62.6 °F 57% 29.91 in 10.0 mi West 8.1 mph - N/A   Clear
7:15 PM 80.6 °F 82.3 °F 64.4 °F 58% 29.92 in 10.0 mi WNW 6.9 mph 12.7 mph N/A   Clear
7:35 PM 78.8 °F - 62.6 °F 57% 29.92 in 10.0 mi WNW 5.8 mph - N/A   Clear
7:55 PM 78.8 °F - 64.4 °F 61% 29.93 in 10.0 mi Calm Calm - N/A   Clear
8:15 PM 78.8 °F - 66.2 °F 65% 29.93 in 10.0 mi Calm Calm - N/A   Clear
8:35 PM 77.0 °F - 66.2 °F 69% 29.93 in 10.0 mi Calm Calm - N/A   Clear
8:55 PM 75.2 °F - 66.2 °F 73% 29.93 in 10.0 mi WSW 3.5 mph - N/A   Clear
9:15 PM 73.4 °F - 66.2 °F 78% 29.94 in 10.0 mi SW 3.5 mph - N/A   Clear
9:35 PM 71.6 °F - 66.2 °F 83% 29.94 in 10.0 mi SSW 3.5 mph - N/A   Clear
9:55 PM 71.6 °F - 66.2 °F 83% 29.95 in 10.0 mi Calm Calm - N/A   Clear
10:15 PM 69.8 °F - 66.2 °F 88% 29.96 in 10.0 mi SSW 3.5 mph - N/A   Clear
10:35 PM 69.8 °F - 64.4 °F 83% 29.97 in 10.0 mi South 4.6 mph - N/A   Clear
11:15 PM 68.0 °F - 64.4 °F 88% 29.97 in 10.0 mi SSW 4.6 mph - N/A   Clear
11:35 PM 68.0 °F - 64.4 °F 88% 29.96 in 10.0 mi South 3.5 mph - N/A   Clear
11:55 PM 68.0 °F - 64.4 °F 88% 29.96 in 10.0 mi Calm Calm - N/A   Clear